| time (UTC) | temp C | wind direction | speed KPH | gust KPH | rain 1hr cm | rain 24hr cm | rain mn cm | humidity % | barometer mb |
| 20260502232507 | 13 | 9 | 0.0 | 0.0 | 0.00 | 1.22 | 0.08 | 89 | 1014.7 |
| 20260502231508 | 13 | 9 | 0.0 | 4.8 | 0.08 | 1.22 | 0.08 | 89 | 1014.8 |
| 20260502231007 | 13 | 9 | 3.2 | 4.8 | 0.08 | 1.22 | 0.08 | 89 | 1014.8 |
| 20260502230508 | 13 | 342 | 4.8 | 8.0 | 0.08 | 1.22 | 0.08 | 88 | 1014.8 |
| 20260502230007 | 13 | 321 | 3.2 | 4.8 | 0.08 | 1.22 | 0.08 | 87 | 1014.8 |
| 20260502225507 | 13 | 321 | 1.6 | 9.7 | 0.08 | 1.22 | 0.08 | 87 | 1014.9 |
| 20260502225007 | 13 | 327 | 8.0 | 9.7 | 0.08 | 1.22 | 0.08 | 87 | 1014.8 |
| 20260502223508 | 13 | 149 | 3.2 | 8.0 | 0.08 | 1.22 | 0.08 | 86 | 1014.7 |
| 20260502223007 | 13 | 170 | 3.2 | 4.8 | 0.08 | 1.22 | 0.08 | 85 | 1014.9 |
| 20260502222508 | 13 | 141 | 3.2 | 8.0 | 0.08 | 1.22 | 0.08 | 84 | 1014.9 |
| 20260502222008 | 14 | 170 | 3.2 | 8.0 | 0.05 | 1.17 | 0.05 | 82 | 1015.2 |
| 20260502221507 | 14 | 221 | 6.4 | 9.7 | 0.00 | 1.14 | 0.00 | 82 | 1015.3 |
| 20260502221007 | 13 | 196 | 4.8 | 8.0 | 0.00 | 1.14 | 0.00 | 83 | 1015.1 |
| 20260502220508 | 13 | 207 | 0.0 | 4.8 | 0.00 | 1.14 | 0.00 | 85 | 1014.9 |
| 20260502220007 | 13 | 210 | 0.0 | 0.0 | 0.00 | 1.14 | 0.00 | 86 | 1014.9 |
| 20260502215007 | 13 | 210 | 0.0 | 0.0 | 0.00 | 1.14 | 1.14 | 85 | 1015.1 |
| 20260502214507 | 12 | 210 | 0.0 | 0.0 | 0.00 | 1.14 | 1.14 | 85 | 1015.1 |
| 20260502214007 | 13 | 210 | 0.0 | 0.0 | 0.00 | 1.14 | 1.14 | 85 | 1015.1 |
| 20260502213507 | 13 | 210 | 0.0 | 0.0 | 0.00 | 1.14 | 1.14 | 85 | 1015.2 |
| 20260502213007 | 13 | 210 | 0.0 | 0.0 | 0.00 | 1.14 | 1.14 | 86 | 1015.1 |
| 20260502212507 | 13 | 210 | 0.0 | 0.0 | 0.00 | 1.14 | 1.14 | 85 | 1015.0 |
| 20260502212007 | 13 | 210 | 0.0 | 0.0 | 0.00 | 1.14 | 1.14 | 84 | 1015.2 |
| 20260502211507 | 13 | 210 | 0.0 | 0.0 | 0.00 | 1.14 | 1.14 | 84 | 1014.9 |
| 20260502211007 | 13 | 210 | 0.0 | 0.0 | 0.00 | 1.14 | 1.14 | 82 | 1014.9 |
| 20260502210007 | 13 | 210 | 0.0 | 0.0 | 0.00 | 1.14 | 1.14 | 82 | 1014.9 |
| 20260502205506 | 13 | 210 | 0.0 | 0.0 | 0.00 | 1.14 | 1.14 | 82 | 1014.9 |
| 20260502205007 | 13 | 210 | 0.0 | 0.0 | 0.00 | 1.14 | 1.14 | 82 | 1014.8 |
| 20260502204507 | 13 | 210 | 0.0 | 0.0 | 0.00 | 1.14 | 1.14 | 83 | 1014.7 |
| 20260502204007 | 13 | 210 | 0.0 | 0.0 | 0.00 | 1.14 | 1.14 | 83 | 1014.7 |
| 20260502203507 | 13 | 210 | 0.0 | 4.8 | 0.00 | 1.14 | 1.14 | 85 | 1014.6 |
| 20260502203007 | 13 | 222 | 0.0 | 0.0 | 0.00 | 1.14 | 1.14 | 85 | 1014.6 |
| 20260502202507 | 13 | 222 | 0.0 | 0.0 | 0.00 | 1.14 | 1.14 | 84 | 1014.5 |
| 20260502202007 | 13 | 222 | 0.0 | 0.0 | 0.00 | 1.14 | 1.14 | 84 | 1014.5 |
| 20260502201507 | 13 | 222 | 0.0 | 0.0 | 0.00 | 1.14 | 1.14 | 84 | 1014.3 |
| 20260502201007 | 13 | 222 | 0.0 | 0.0 | 0.00 | 1.14 | 1.14 | 84 | 1014.3 |
| 20260502200007 | 13 | 222 | 0.0 | 0.0 | 0.00 | 1.14 | 1.14 | 83 | 1014.2 |
| 20260502195507 | 14 | 222 | 0.0 | 0.0 | 0.00 | 1.14 | 1.14 | 83 | 1014.2 |
| 20260502195007 | 14 | 222 | 0.0 | 0.0 | 0.00 | 1.14 | 1.14 | 82 | 1014.1 |
| 20260502194507 | 15 | 222 | 0.0 | 0.0 | 0.00 | 1.14 | 1.14 | 81 | 1013.9 |
| 20260502193508 | 15 | 214 | 3.2 | 4.8 | 0.00 | 1.14 | 1.14 | 79 | 1014.0 |
| 20260502193007 | 15 | 186 | 0.0 | 3.2 | 0.00 | 1.14 | 1.14 | 79 | 1014.0 |
| 20260502192507 | 15 | 186 | 0.0 | 0.0 | 0.00 | 1.14 | 1.14 | 79 | 1014.0 |
| 20260502192007 | 16 | 186 | 0.0 | 3.2 | 0.00 | 1.14 | 1.14 | 78 | 1013.9 |
| 20260502191507 | 16 | 186 | 0.0 | 3.2 | 0.00 | 1.14 | 1.14 | 78 | 1013.9 |
| 20260502191007 | 16 | 197 | 0.0 | 0.0 | 0.00 | 1.14 | 1.14 | 78 | 1013.8 |
| 20260502190507 | 16 | 211 | 3.2 | 4.8 | 0.00 | 1.14 | 1.14 | 78 | 1013.8 |
| 20260502190007 | 16 | 206 | 3.2 | 4.8 | 0.00 | 1.14 | 1.14 | 78 | 1013.8 |
| 20260502185507 | 16 | 271 | 1.6 | 4.8 | 0.00 | 1.14 | 1.14 | 78 | 1013.8 |
| 20260502185007 | 16 | 287 | 4.8 | 9.7 | 0.00 | 1.14 | 1.14 | 77 | 1013.9 |
| 20260502184010 | 16 | 285 | 3.2 | 4.8 | 0.00 | 1.14 | 1.14 | 76 | 1013.8 |
| 20260502183507 | 16 | 287 | 1.6 | 9.7 | 0.00 | 1.14 | 1.14 | 76 | 1013.8 |
| 20260502182506 | 16 | 287 | 8.0 | 11.3 | 0.00 | 1.14 | 1.14 | 76 | 1013.8 |
| 20260502182006 | 16 | 293 | 4.8 | 9.7 | 0.00 | 1.14 | 1.14 | 78 | 1013.7 |
| 20260502181507 | 16 | 289 | 3.2 | 4.8 | 0.00 | 1.14 | 1.14 | 79 | 1013.7 |
| 20260502181006 | 15 | 290 | 4.8 | 11.3 | 0.00 | 1.14 | 1.14 | 79 | 1013.9 |
| 20260502180507 | 15 | 290 | 3.2 | 11.3 | 0.00 | 1.14 | 1.14 | 79 | 1013.7 |
| 20260502170507 | 15 | 294 | 11.3 | 16.1 | 0.00 | 1.14 | 1.14 | 78 | 1014.1 |
| 20260502164007 | 15 | 306 | 17.7 | 27.4 | 0.00 | 1.14 | 1.14 | 80 | 1013.9 |
| 20260502163506 | 15 | 316 | 17.7 | 24.1 | 0.00 | 1.14 | 1.14 | 81 | 1014.0 |
| 20260502162507 | 15 | 298 | 17.7 | 24.1 | 0.00 | 1.14 | 1.14 | 81 | 1014.1 |
| 20260502162007 | 15 | 293 | 19.3 | 29.0 | 0.00 | 1.14 | 1.14 | 80 | 1014.1 |
| 20260502161506 | 15 | 295 | 19.3 | 32.2 | 0.00 | 1.14 | 1.14 | 81 | 1014.1 |
| 20260502161006 | 15 | 306 | 25.7 | 38.6 | 0.00 | 1.14 | 1.14 | 80 | 1014.1 |
| 20260502152006 | 18 | 150 | 4.8 | 12.9 | 0.00 | 1.14 | 1.14 | 77 | 1013.9 |
| 20260502151507 | 18 | 189 | 6.4 | 14.5 | 0.00 | 1.14 | 1.14 | 77 | 1013.9 |
| 20260502151007 | 18 | 182 | 4.8 | 8.0 | 0.00 | 1.14 | 1.14 | 76 | 1013.8 |
| 20260502150507 | 18 | 142 | 1.6 | 4.8 | 0.00 | 1.14 | 1.14 | 77 | 1014.0 |
| 20260502130506 | 13 | 227 | 17.7 | 29.0 | 0.43 | 0.94 | 0.94 | 83 | 1016.1 |
| 20260502123506 | 17 | 175 | 12.9 | 24.1 | 0.00 | 0.51 | 0.51 | 71 | 1015.7 |
| 20260502123007 | 17 | 180 | 16.1 | 25.7 | 0.00 | 0.51 | 0.51 | 71 | 1015.7 |
| 20260502122506 | 17 | 193 | 16.1 | 25.7 | 0.00 | 0.51 | 0.51 | 71 | 1015.6 |
| 20260502121507 | 17 | 166 | 11.3 | 16.1 | 0.00 | 0.51 | 0.51 | 73 | 1016.0 |
| 20260502121006 | 17 | 183 | 14.5 | 22.5 | 0.00 | 0.51 | 0.51 | 72 | 1016.1 |
| 20260502120506 | 17 | 181 | 14.5 | 19.3 | 0.00 | 0.51 | 0.51 | 73 | 1016.1 |
| 20260502115506 | 17 | 174 | 11.3 | 20.9 | 0.00 | 0.51 | 0.51 | 77 | 1016.1 |
| 20260502115006 | 17 | 182 | 11.3 | 19.3 | 0.00 | 0.51 | 0.51 | 78 | 1016.2 |
| 20260502114506 | 16 | 175 | 11.3 | 19.3 | 0.00 | 0.51 | 0.51 | 78 | 1016.2 |
| 20260502113506 | 16 | 190 | 9.7 | 19.3 | 0.00 | 0.51 | 0.51 | 81 | 1016.5 |
| 20260502113007 | 16 | 183 | 9.7 | 19.3 | 0.00 | 0.51 | 0.51 | 82 | 1016.5 |
| 20260502112506 | 16 | 169 | 8.0 | 16.1 | 0.00 | 0.51 | 0.51 | 83 | 1016.6 |
| 20260502112006 | 16 | 198 | 4.8 | 11.3 | 0.00 | 0.51 | 0.51 | 84 | 1016.6 |
| 20260502111506 | 16 | 202 | 4.8 | 16.1 | 0.00 | 0.51 | 0.51 | 85 | 1016.7 |
| 20260502110506 | 15 | 187 | 1.6 | 9.7 | 0.00 | 0.51 | 0.51 | 86 | 1016.9 |
| 20260502105507 | 15 | 187 | 4.8 | 9.7 | 0.00 | 0.51 | 0.51 | 86 | 1017.3 |
| 20260502105006 | 15 | 191 | 3.2 | 4.8 | 0.03 | 0.51 | 0.51 | 86 | 1017.2 |
| 20260502104506 | 15 | 151 | 0.0 | 4.8 | 0.05 | 0.51 | 0.51 | 87 | 1017.1 |
| 20260502104006 | 15 | 151 | 3.2 | 8.0 | 0.05 | 0.51 | 0.51 | 87 | 1017.3 |
| 20260502103506 | 15 | 174 | 0.0 | 1.6 | 0.05 | 0.51 | 0.51 | 88 | 1017.3 |
| 20260502103007 | 15 | 174 | 3.2 | 4.8 | 0.05 | 0.51 | 0.51 | 88 | 1017.4 |
| 20260502102507 | 15 | 173 | 4.8 | 9.7 | 0.05 | 0.51 | 0.51 | 87 | 1017.4 |
| 20260502101508 | 15 | 195 | 4.8 | 9.7 | 0.05 | 0.51 | 0.51 | 87 | 1017.7 |
| 20260502101008 | 15 | 186 | 1.6 | 8.0 | 0.05 | 0.51 | 0.51 | 88 | 1017.7 |
| 20260502100508 | 15 | 174 | 4.8 | 9.7 | 0.05 | 0.51 | 0.51 | 87 | 1017.7 |
| 20260502091509 | 14 | 135 | 4.8 | 9.7 | 0.05 | 0.48 | 0.48 | 90 | 1017.7 |
| 20260502091008 | 14 | 122 | 3.2 | 4.8 | 0.05 | 0.48 | 0.48 | 90 | 1017.7 |
| 20260502090508 | 13 | 113 | 3.2 | 4.8 | 0.08 | 0.48 | 0.48 | 90 | 1017.8 |
| 20260502071508 | 13 | 148 | 1.6 | 4.8 | 0.20 | 0.20 | 0.20 | 89 | 1017.6 |
| 20260502071008 | 13 | 154 | 3.2 | 8.0 | 0.20 | 0.20 | 0.20 | 88 | 1017.7 |
| 20260502070008 | 13 | 182 | 0.0 | 0.0 | 0.20 | 0.20 | 0.20 | 87 | 1017.8 |
| 20260502065508 | 13 | 182 | 0.0 | 4.8 | 0.18 | 0.18 | 0.18 | 88 | 1017.8 |
| 20260502065008 | 13 | 173 | 3.2 | 4.8 | 0.15 | 0.15 | 0.15 | 86 | 1018.0 |
| 20260502064508 | 13 | 190 | 4.8 | 9.7 | 0.15 | 0.15 | 0.15 | 85 | 1017.8 |
| 20260502064008 | 14 | 206 | 4.8 | 12.9 | 0.10 | 0.10 | 0.10 | 84 | 1018.2 |
| 20260502063508 | 14 | 191 | 11.3 | 16.1 | 0.05 | 0.05 | 0.05 | 82 | 1018.2 |
| 20260502063008 | 14 | 209 | 9.7 | 19.3 | 0.00 | 0.00 | 0.00 | 81 | 1018.3 |
| 20260502062008 | 14 | 201 | 4.8 | 8.0 | 0.00 | 0.00 | 0.00 | 81 | 1017.9 |
| 20260502061008 | 14 | 132 | 1.6 | 4.8 | 0.00 | 0.00 | 0.00 | 81 | 1017.5 |
| 20260502060508 | 14 | 134 | 3.2 | 8.0 | 0.00 | 0.00 | 0.00 | 81 | 1017.3 |
| 20260502060008 | 14 | 156 | 1.6 | 4.8 | 0.00 | 0.00 | 0.00 | 81 | 1017.2 |
| 20260502055508 | 14 | 162 | 0.0 | 8.0 | 0.00 | 0.00 | 0.00 | 82 | 1017.2 |
| 20260502055008 | 14 | 155 | 1.6 | 4.8 | 0.00 | 0.00 | 0.00 | 82 | 1017.2 |
| 20260502054508 | 14 | 155 | 3.2 | 11.3 | 0.00 | 0.00 | 0.00 | 81 | 1017.1 |
| 20260502054008 | 14 | 136 | 3.2 | 9.7 | 0.00 | 0.00 | 0.00 | 81 | 1017.1 |
| 20260502053008 | 14 | 163 | 6.4 | 11.3 | 0.00 | 0.00 | 0.00 | 81 | 1017.3 |
| 20260502052507 | 14 | 147 | 3.2 | 8.0 | 0.00 | 0.00 | 0.00 | 81 | 1017.3 |
| 20260502052007 | 15 | 172 | 3.2 | 8.0 | 0.00 | 0.00 | 0.00 | 81 | 1017.5 |
| 20260502051508 | 15 | 181 | 6.4 | 9.7 | 0.00 | 0.00 | 0.00 | 80 | 1017.5 |
| 20260502051008 | 15 | 188 | 4.8 | 9.7 | 0.00 | 0.00 | 0.00 | 80 | 1017.6 |
| 20260502050508 | 15 | 175 | 4.8 | 12.9 | 0.00 | 0.00 | 0.00 | 80 | 1017.6 |
| 20260502050008 | 15 | 156 | 4.8 | 9.7 | 0.00 | 0.00 | 0.00 | 80 | 1017.6 |
| 20260502045508 | 15 | 155 | 4.8 | 9.7 | 0.00 | 0.00 | 0.00 | 80 | 1017.6 |
| 20260502045007 | 15 | 174 | 4.8 | 9.7 | 0.00 | 0.00 | 0.00 | 80 | 1017.6 |
| 20260502044508 | 15 | 188 | 4.8 | 9.7 | 0.00 | 0.00 | 0.00 | 80 | 1017.6 |
| 20260502044008 | 15 | 180 | 3.2 | 9.7 | 0.00 | 0.00 | 0.00 | 80 | 1017.6 |
| 20260502043008 | 15 | 191 | 3.2 | 11.3 | 0.00 | 0.00 | 0.00 | 80 | 1017.6 |
| 20260502042508 | 15 | 126 | 3.2 | 4.8 | 0.00 | 0.00 | 0.00 | 80 | 1017.4 |
| 20260502041008 | 15 | 167 | 8.0 | 9.7 | 0.00 | 0.00 | 0.00 | 80 | 1017.7 |
| 20260502040508 | 15 | 182 | 4.8 | 12.9 | 0.00 | 0.00 | 0.00 | 80 | 1017.7 |
| 20260502040008 | 15 | 155 | 1.6 | 8.0 | 0.00 | 0.00 | 0.00 | 80 | 1017.8 |
| 20260502035508 | 15 | 140 | 3.2 | 8.0 | 0.00 | 0.00 | 0.00 | 80 | 1017.8 |
| 20260502035008 | 14 | 176 | 3.2 | 11.3 | 0.00 | 0.00 | 0.00 | 80 | 1017.9 |
| 20260502034507 | 14 | 169 | 4.8 | 8.0 | 0.00 | 0.00 | 0.00 | 81 | 1018.0 |
| 20260502033507 | 14 | 178 | 0.0 | 0.0 | 0.00 | 0.00 | 0.00 | 81 | 1017.9 |
| 20260502032508 | 15 | 178 | 0.0 | 0.0 | 0.00 | 0.00 | 0.00 | 79 | 1018.0 |
| 20260502032008 | 15 | 178 | 0.0 | 0.0 | 0.00 | 0.00 | 0.00 | 79 | 1018.0 |
| 20260502031507 | 15 | 178 | 0.0 | 0.0 | 0.00 | 0.00 | 0.00 | 79 | 1018.1 |
| 20260502031008 | 15 | 178 | 0.0 | 4.8 | 0.00 | 0.00 | 0.00 | 79 | 1018.0 |
| 20260502030507 | 15 | 211 | 0.0 | 0.0 | 0.00 | 0.00 | 0.00 | 79 | 1017.9 |
| 20260502030013 | 15 | 211 | 3.2 | 4.8 | 0.00 | 0.00 | 0.00 | 79 | 1017.9 |
| 20260502025509 | 15 | 158 | 1.6 | 8.0 | 0.00 | 0.00 | 0.00 | 79 | 1018.0 |
| 20260502025008 | 15 | 158 | 0.0 | 3.2 | 0.00 | 0.00 | 0.00 | 79 | 1018.1 |
| 20260502024507 | 15 | 158 | 0.0 | 1.6 | 0.00 | 0.00 | 0.00 | 78 | 1018.0 |
| 20260502024007 | 15 | 158 | 1.6 | 3.2 | 0.00 | 0.00 | 0.00 | 78 | 1018.0 |
| 20260502023508 | 15 | 158 | 0.0 | 0.0 | 0.00 | 0.00 | 0.00 | 78 | 1017.9 |
| 20260502023008 | 15 | 192 | 0.0 | 0.0 | 0.00 | 0.00 | 0.00 | 78 | 1017.9 |
| 20260502022508 | 15 | 192 | 1.6 | 4.8 | 0.00 | 0.00 | 0.00 | 78 | 1017.9 |
| 20260502022007 | 15 | 165 | 1.6 | 11.3 | 0.00 | 0.00 | 0.00 | 78 | 1018.0 |
| 20260502021508 | 15 | 155 | 4.8 | 12.9 | 0.00 | 0.00 | 0.00 | 78 | 1017.9 |
| 20260502021008 | 15 | 162 | 8.0 | 16.1 | 0.00 | 0.00 | 0.00 | 78 | 1017.9 |
| 20260502020008 | 15 | 164 | 8.0 | 16.1 | 0.00 | 0.00 | 0.00 | 77 | 1018.0 |
| 20260502015507 | 15 | 165 | 8.0 | 19.3 | 0.00 | 0.00 | 0.00 | 77 | 1018.0 |
| 20260502015007 | 15 | 174 | 8.0 | 12.9 | 0.00 | 0.00 | 0.00 | 77 | 1018.1 |
| 20260502014508 | 15 | 150 | 6.4 | 11.3 | 0.00 | 0.00 | 0.00 | 77 | 1017.8 |
| 20260502013008 | 15 | 155 | 8.0 | 12.9 | 0.00 | 0.00 | 0.00 | 77 | 1018.0 |
| 20260502012508 | 15 | 157 | 3.2 | 8.0 | 0.00 | 0.00 | 0.00 | 77 | 1018.2 |
| 20260502012007 | 15 | 171 | 3.2 | 9.7 | 0.00 | 0.00 | 0.00 | 77 | 1018.3 |
| 20260502011508 | 15 | 171 | 4.8 | 11.3 | 0.00 | 0.00 | 0.00 | 77 | 1018.4 |
| 20260502011007 | 15 | 157 | 6.4 | 19.3 | 0.00 | 0.00 | 0.00 | 76 | 1018.4 |
| 20260502010509 | 15 | 165 | 6.4 | 19.3 | 0.00 | 0.00 | 0.00 | 76 | 1018.5 |
| 20260502010008 | 15 | 152 | 9.7 | 22.5 | 0.00 | 0.00 | 0.00 | 76 | 1018.5 |
| 20260502005507 | 16 | 157 | 9.7 | 19.3 | 0.00 | 0.00 | 0.00 | 76 | 1018.5 |
| 20260502005007 | 16 | 173 | 11.3 | 22.5 | 0.00 | 0.00 | 0.00 | 75 | 1018.4 |
| 20260502004508 | 16 | 152 | 11.3 | 25.7 | 0.00 | 0.00 | 0.00 | 75 | 1018.4 |
| 20260502004007 | 16 | 150 | 8.0 | 19.3 | 0.00 | 0.00 | 0.00 | 75 | 1018.3 |
| 20260502003508 | 16 | 147 | 9.7 | 19.3 | 0.00 | 0.00 | 0.00 | 75 | 1018.4 |
| 20260502003008 | 16 | 141 | 8.0 | 19.3 | 0.00 | 0.00 | 0.00 | 75 | 1018.4 |
| 20260502002507 | 16 | 152 | 6.4 | 11.3 | 0.00 | 0.00 | 0.00 | 75 | 1018.5 |
| 20260502002007 | 16 | 157 | 4.8 | 11.3 | 0.00 | 0.00 | 0.00 | 75 | 1018.5 |
| 20260502001508 | 16 | 160 | 9.7 | 19.3 | 0.00 | 0.00 | 0.00 | 75 | 1018.6 |
| 20260502000508 | 16 | 156 | 9.7 | 16.1 | 0.00 | 0.00 | 0.00 | 74 | 1018.7 |
| 20260502000008 | 16 | 171 | 9.7 | 19.3 | 0.00 | 0.00 | 0.00 | 74 | 1018.8 |
| 20260501234508 | 16 | 192 | 9.7 | 19.3 | 0.00 | 0.00 | 0.00 | 74 | 1019.0 |
| 20260501234007 | 16 | 191 | 9.7 | 16.1 | 0.00 | 0.00 | 0.00 | 73 | 1019.0 |
| 20260501233507 | 16 | 183 | 8.0 | 16.1 | 0.00 | 0.00 | 0.00 | 73 | 1019.0 |